Home > Weather > Zabrze > Past weeks

Flag for Poland Weather for the Past 2 Weeks in Zabrze, Poland

Now
32 °F

Clear.


Feels Like: 25 °F
Forecast: 33 / 46 °F
Wind: 8 mph from Southwest

Location: Katowice Airport

Current Time: Feb 6, 2016 at 12:19:12 AM

Latest Report: Feb 5, 2016 at 11:30 PM


Visibility: 4 mi

Pressure: 30.21 "Hg

Humidity: 80%

Dew point: 27 °F

Location of ZabrzeLocation

Historic Weather in Zabrze — Graph

°F

Zabrze Temperature Yesterday

Maximum temperature yesterday: 36 °F (at 2:30 PM)
Minimum temperature yesterday: 30 °F (at 6:00 PM)
Average temperature yesterday: 32 °F

High & Low Weather Summary for the Past Weeks

 TemperatureHumidityPressure
High54 °F (Jan 30, 2:00 PM)100% (Jan 24, 2:30 AM)30.51 "Hg (Jan 24, 2:30 AM)
Low5 °F (Jan 23, 2:30 AM)44% (Jan 30, 2:30 PM)29.62 "Hg (Jan 31, 3:00 AM)
Average36 °F84%30.12 "Hg
* Reported Jan 21 11:00 PM — Feb 5 11:00 PM, Zabrze, Weather by CustomWeather, © 2016

Note: Actual official high and low records may vary slightly from our data, if they occured in-between our weather recording intervals... More about our weather records

Advertising

Zabrze Weather History for the Previous 24 Hours

 ConditionsComfort  
Time TempWeatherWind HumidityBarometerVisibility
11:00 PM
Fri, Feb 5
32 °FIce fog.9 mph80%30.21 "Hg3 mi
10:30 PM30 °FIce fog.7 mph86%30.24 "Hg2 mi
10:00 PM30 °FIce fog.8 mph86%30.24 "Hg2 mi
9:30 PM30 °FIce fog.7 mph86%30.24 "Hg2 mi
9:00 PM30 °FIce fog.6 mph86%30.24 "Hg2 mi
8:30 PM30 °FIce fog.6 mph93%30.24 "Hg2 mi
8:00 PM30 °FIce fog.5 mph86%30.24 "Hg2 mi
7:30 PM32 °FIce fog.7 mph87%30.24 "Hg3 mi
7:00 PM32 °FIce fog.8 mph87%30.24 "Hg3 mi
6:30 PM30 °FPassing clouds.7 mph86%30.24 "Hg4 mi
6:00 PM30 °FPassing clouds.5 mph86%30.24 "Hg5 mi
5:30 PM32 °FPassing clouds.2 mph80%30.24 "Hg4 mi
5:00 PM32 °FPassing clouds.5 mph80%30.24 "HgN/A
4:30 PM34 °FPassing clouds.8 mph81%30.24 "HgN/A
4:00 PM32 °FPassing clouds.8 mph87%30.24 "HgN/A
3:30 PM36 °FPassing clouds.10 mph70%30.24 "HgN/A
3:00 PM36 °FPassing clouds.13 mph75%30.24 "HgN/A
2:30 PM36 °FScattered clouds.13 mph75%30.24 "HgN/A
2:00 PM34 °FSnow flurries. Broken clouds.13 mph81%30.24 "HgN/A
1:30 PM34 °FBroken clouds.9 mph87%30.24 "HgN/A
1:00 PM34 °FBroken clouds.15 mph87%30.24 "HgN/A
12:30 PM34 °FBroken clouds.12 mph87%30.27 "HgN/A
12:00 PM34 °FLow clouds.9 mph87%30.27 "HgN/A
11:30 AM32 °FPartly sunny.9 mph93%30.27 "HgN/A
11:00 AM32 °FLight snow. More clouds than sun.9 mph93%30.27 "HgN/A
10:30 AM32 °FPartly sunny.12 mph93%30.27 "HgN/A
10:00 AM32 °FBroken clouds.9 mph93%30.24 "HgN/A
9:30 AM32 °FBroken clouds.9 mph93%30.24 "HgN/A
9:00 AM32 °FBroken clouds.10 mph93%30.21 "HgN/A
8:30 AM32 °FPartly sunny.8 mph93%30.21 "HgN/A
8:00 AM32 °FBroken clouds.9 mph93%30.21 "HgN/A
7:30 AM32 °FPartly sunny.8 mph93%30.18 "HgN/A
7:00 AM32 °FPassing clouds.8 mph93%30.15 "HgN/A
6:30 AM32 °FMostly cloudy.10 mph93%30.15 "HgN/A
6:00 AM32 °FPartly cloudy.9 mph93%30.12 "HgN/A
5:00 AM32 °FPartly cloudy.8 mph93%30.12 "HgN/A
4:00 AM32 °FLight snow. Partly cloudy.7 mph93%30.09 "Hg4 mi
3:30 AM32 °FLow clouds.9 mph100%30.07 "HgN/A
3:00 AM32 °FPassing clouds.10 mph100%30.07 "HgN/A
2:30 AM32 °FLight snow. Passing clouds.8 mph100%30.07 "HgN/A
2:00 AM32 °FSnow flurries. Partly cloudy.9 mph100%30.04 "Hg4 mi
1:00 AM32 °FHeavy snow. Passing clouds.9 mph100%30.01 "Hg1 mi
12:30 AM32 °FHeavy snow. Partly cloudy.10 mph93%30.01 "Hg1 mi
12:00 AM34 °FSnow flurries. Partly cloudy.12 mph87%30.01 "Hg5 mi
Weather by CustomWeather, © 2016

See weather overviewHow to use our weather pages